User: anonymous   Login
Location: Hepcat Sky Observatory
(29.9800°N, 95.6500°W)
Time: 04:54:17
(UTC-05:00)
Language:

Cosmos 2151 Rocket - Orbit

View from above orbital plane
View from above orbital plane
View from above satellite
View from above satellite

Ground track
Ground track

The orbit data is extracted from the following two-line orbital elements,

1 21423U 91042B   15242.07612852  .00000171  00000-0  19832-4 0  9999
2 21423 082.4931 215.4151 0016282 240.2203 119.7391 14.79537326305413
Epoch (UTC): 30 August 2015 01:49:37
Eccentricity: 0.0016282
inclination: 82.4931°
perigee height: 619 km
apogee height: 642 km
right ascension of ascending node: 215.4151°
argument of perigee: 240.2203°
revolutions per day: 14.79537326
mean anomaly at epoch: 119.7391°
orbit number at epoch: 30541

The dashed part of the orbit path shows where the satellite is in the earth's shadow,  

DLR